GW4605 Weather Reports


time (UTC)temp
F
wind
direction
speed
knots
gust
knots
rain 1hr
in
rain 24hr
in
rain mn
in
humidity
%
barometer
mb
20260505092937 64 233 0.0 2.6 0.00 0.00 0.00 62 1011.0
20260505092434 64 59 0.9 1.7 0.00 0.00 0.00 62 1011.1
20260505091932 64 176 0.0 2.6 0.00 0.00 0.00 62 1011.0
20260505091429 64 42 0.9 0.9 0.00 0.00 0.00 62 1010.9
20260505090927 64 51 1.7 5.2 0.00 0.00 0.00 61 1010.8
20260505090425 64 224 0.9 0.9 0.00 0.00 0.00 61 1010.9
20260505085922 64 297 0.9 2.6 0.00 0.00 0.00 62 1010.9
20260505085420 64 121 0.9 0.9 0.00 0.00 0.00 62 1010.8
20260505084918 64 38 0.0 3.5 0.00 0.00 0.00 62 1010.7
20260505084416 64 243 0.9 6.1 0.00 0.00 0.00 62 1010.9
20260505083914 64 43 0.9 2.6 0.00 0.00 0.00 62 1010.8
20260505083411 64 54 0.0 1.7 0.00 0.00 0.00 62 1010.8
20260505082907 64 244 0.9 6.1 0.00 0.00 0.00 63 1010.8
20260505082402 64 18 1.7 2.6 0.00 0.00 0.00 63 1010.7
20260505081900 64 48 0.0 0.9 0.00 0.00 0.00 63 1010.7
20260505081356 63 198 0.0 2.6 0.00 0.00 0.00 63 1010.6
20260505080853 63 346 0.9 3.5 0.00 0.00 0.00 63 1010.7
20260505080349 63 205 0.0 2.6 0.00 0.00 0.00 63 1010.6
20260505075845 63 48 0.9 1.7 0.00 0.00 0.00 63 1010.6
20260505075342 63 64 0.9 1.7 0.00 0.00 0.00 63 1010.7
20260505074839 63 42 0.0 0.9 0.00 0.00 0.00 63 1010.6
20260505074336 63 167 0.9 1.7 0.00 0.00 0.00 63 1010.5
20260505073833 63 44 0.9 0.9 0.00 0.00 0.00 63 1010.4
20260505073331 63 241 1.7 2.6 0.00 0.00 0.00 63 1010.3
20260505072828 63 66 0.0 0.9 0.00 0.00 0.00 63 1010.4
20260505072324 63 216 0.0 2.6 0.00 0.00 0.00 63 1010.4
20260505071820 64 193 0.0 1.7 0.00 0.00 0.00 63 1010.4
20260505071317 64 109 0.0 1.7 0.00 0.00 0.00 63 1010.3
20260505070815 64 229 0.9 7.0 0.00 0.00 0.00 63 1010.4
20260505070311 64 190 0.0 2.6 0.00 0.00 0.00 63 1010.3
20260505065806 64 26 1.7 2.6 0.00 0.00 0.00 64 1010.6
20260505065304 64 31 0.9 1.7 0.00 0.00 0.00 63 1010.6
20260505064800 64 279 1.7 3.5 0.00 0.00 0.00 64 1010.6
20260505064257 63 69 0.0 1.7 0.00 0.00 0.00 65 1010.4
20260505063755 63 84 0.0 0.9 0.00 0.00 0.00 66 1010.5
20260505063252 62 217 0.0 0.9 0.00 0.00 0.00 66 1010.6
20260505062748 62 242 1.7 2.6 0.00 0.00 0.00 68 1010.8
20260505062246 62 192 0.0 0.9 0.00 0.00 0.00 68 1010.7
20260505061743 61 248 0.9 1.7 0.00 0.00 0.00 69 1010.6
20260505061241 62 220 0.0 0.0 0.00 0.00 0.00 69 1010.8
20260505060738 62 252 0.9 1.7 0.00 0.00 0.00 69 1010.6
20260505060235 61 236 0.0 1.7 0.00 0.00 0.00 71 1010.9
20260505055729 61 235 0.0 1.7 0.00 0.00 0.00 73 1010.9
20260505055226 60 178 0.0 0.9 0.00 0.00 0.00 75 1010.9
20260505054724 60 193 0.0 0.0 0.00 0.00 0.00 75 1010.7
20260505054222 60 182 0.0 0.0 0.00 0.00 0.00 75 1011.0
20260505053720 60 233 0.9 0.9 0.00 0.00 0.00 76 1010.7
20260505053215 60 203 0.0 0.0 0.00 0.00 0.00 77 1010.8
20260505052713 60 203 0.0 0.9 0.00 0.00 0.00 77 1010.9
20260505052204 59 165 0.0 0.0 0.00 0.00 0.00 78 1010.8
20260505051702 58 241 0.9 1.7 0.00 0.00 0.00 79 1010.8
20260505051200 58 170 0.9 0.9 0.00 0.00 0.00 82 1010.8
20260505050657 58 116 0.0 0.0 0.00 0.00 0.00 82 1010.8
20260505050156 58 186 0.0 0.0 0.00 0.00 0.00 82 1010.5
20260505041630 55 193 0.0 0.0 0.00 0.00 0.00 90 1010.6
20260505041128 55 179 0.0 0.0 0.00 0.00 0.00 91 1010.5
20260505040624 55 157 0.0 0.0 0.00 0.00 0.00 92 1010.2
20260505040122 54 247 0.9 1.7 0.00 0.00 0.00 92 1010.5
20260505035618 54 210 0.9 0.9 0.00 0.00 0.00 93 1010.2
20260505035114 54 187 0.0 0.0 0.00 0.00 0.00 93 1010.3
20260505034611 54 173 0.0 0.9 0.00 0.00 0.00 93 1010.3
20260505034108 54 173 0.0 0.0 0.00 0.00 0.00 93 1010.5
20260505033605 54 161 0.0 0.0 0.00 0.00 0.00 93 1010.2
20260505033103 54 138 0.0 0.0 0.00 0.00 0.00 92 1010.4
20260505032601 53 122 0.0 0.0 0.00 0.00 0.00 92 1010.4
20260505032057 54 78 0.0 0.0 0.00 0.00 0.00 92 1010.5
20260505031554 54 70 0.0 0.0 0.00 0.00 0.00 91 1010.3
20260505031050 54 70 0.0 0.0 0.00 0.00 0.00 91 1010.5
20260505030548 54 147 0.0 0.0 0.00 0.00 0.00 91 1010.5
20260505030043 55 65 0.0 0.0 0.00 0.00 0.00 90 1010.3
20260505025534 55 63 0.0 0.0 0.00 0.00 0.00 90 1010.6
20260505025033 55 55 0.0 0.0 0.00 0.00 0.00 89 1010.5
20260505024530 55 104 0.0 0.0 0.00 0.00 0.00 89 1010.4
20260505024027 56 71 0.0 0.0 0.00 0.00 0.00 88 1010.2
20260505023524 56 97 0.0 0.0 0.00 0.00 0.00 87 1010.3
20260505023022 56 113 0.0 0.0 0.00 0.00 0.00 86 1010.4
20260505022519 57 262 0.0 0.0 0.00 0.00 0.00 85 1010.2
20260505022016 57 226 0.0 0.0 0.00 0.00 0.00 84 1010.3
20260505021513 58 200 0.0 0.9 0.00 0.00 0.00 83 1010.3
20260505021009 58 259 0.0 0.9 0.00 0.00 0.00 81 1010.4
20260505020508 59 30 0.0 0.0 0.00 0.00 0.00 80 1010.2
20260505020006 58 238 0.9 0.9 0.00 0.00 0.00 81 1010.2
20260505015503 58 227 0.0 0.9 0.00 0.00 0.00 82 1010.4
20260505015000 58 240 0.0 0.9 0.00 0.00 0.00 81 1010.0
20260505014457 59 257 1.7 1.7 0.00 0.00 0.00 81 1010.2
20260505013954 59 252 0.9 0.9 0.00 0.00 0.00 80 1010.2
20260505013451 59 235 0.0 0.9 0.00 0.00 0.00 79 1010.4
20260505012948 59 240 0.9 0.9 0.00 0.00 0.00 79 1010.3
20260505012446 59 225 0.0 0.0 0.00 0.00 0.00 80 1010.4
20260505011943 59 235 0.0 0.0 0.00 0.00 0.00 79 1010.3
20260505011439 60 223 0.0 0.9 0.00 0.00 0.00 78 1010.0
20260505010936 60 184 0.0 0.9 0.00 0.00 0.00 77 1010.2
20260505010432 60 254 0.0 0.0 0.00 0.00 0.00 77 1010.0
20260505005928 60 254 0.0 0.0 0.00 0.00 0.00 75 1010.0
20260505005425 61 237 0.0 0.0 0.00 0.00 0.00 75 1009.9
20260505004922 61 235 0.0 0.0 0.00 0.00 0.00 75 1009.9
20260505004418 62 208 0.0 0.0 0.00 0.00 0.00 73 1010.0
20260505003915 62 242 0.0 0.0 0.00 0.00 0.00 72 1010.0
20260505003413 63 244 0.0 0.0 0.00 0.00 0.00 71 1010.0
20260505002909 64 162 0.0 0.0 0.00 0.00 0.00 70 1010.5
20260505002405 65 160 0.0 0.0 0.00 0.00 0.00 65 1010.4
20260505001904 66 114 0.0 0.0 0.00 0.00 0.00 63 1010.4
20260505001401 67 142 0.0 0.0 0.00 0.00 0.00 60 1010.5
20260505000858 68 94 0.0 0.0 0.00 0.00 0.00 57 1010.5
20260505000358 69 137 0.0 0.0 0.00 0.00 0.00 56 1010.3
20260504235852 70 110 0.0 0.0 0.00 0.00 0.00 54 1010.3
20260504235349 70 143 0.0 0.0 0.00 0.00 0.00 53 1010.4
20260504234845 70 225 0.0 0.9 0.00 0.00 0.00 53 1010.6
20260504234343 70 211 0.0 1.7 0.00 0.00 0.00 53 1010.6
20260504233840 71 33 1.7 1.7 0.00 0.00 0.00 51 1010.5
20260504233335 71 230 1.7 1.7 0.00 0.00 0.00 52 1010.5
20260504232833 71 68 0.9 1.7 0.00 0.00 0.00 52 1010.4
20260504232329 70 28 0.9 2.6 0.00 0.00 0.00 54 1010.6
20260504231826 70 192 0.0 6.1 0.00 0.00 0.00 53 1010.5
20260504231323 70 133 0.0 7.0 0.00 0.00 0.00 53 1010.8
20260504230819 70 65 0.0 5.2 0.00 0.00 0.00 53 1010.7
20260504230317 70 53 1.7 2.6 0.00 0.00 0.00 53 1010.8
20260504225816 70 97 0.0 3.5 0.00 0.00 0.00 54 1011.1
20260504225311 70 43 1.7 1.7 0.00 0.00 0.00 53 1010.9
20260504224809 70 70 1.7 6.1 0.00 0.00 0.00 52 1010.8
20260504224306 70 55 0.9 5.2 0.00 0.00 0.00 53 1011.1
20260504223802 71 30 1.7 6.1 0.00 0.00 0.00 51 1011.0
20260504223258 71 18 1.7 8.7 0.00 0.00 0.00 51 1010.8
20260504222755 71 55 4.3 5.2 0.00 0.00 0.00 49 1010.8
20260504222252 72 21 3.5 7.0 0.00 0.00 0.00 50 1010.8
20260504221750 74 35 3.5 7.0 0.00 0.00 0.00 47 1010.9
20260504221247 73 39 0.0 1.7 0.00 0.00 0.00 49 1010.9
20260504220743 73 32 3.5 5.2 0.00 0.00 0.00 47 1010.7
20260504220240 73 35 7.0 9.6 0.00 0.00 0.00 47 1010.5
20260504215737 73 47 2.6 3.5 0.00 0.00 0.00 47 1010.5
20260504215234 73 261 0.9 1.7 0.00 0.00 0.00 48 1010.6
20260504214730 72 51 3.5 7.0 0.00 0.00 0.00 47 1010.7
20260504214226 72 32 1.7 9.6 0.00 0.00 0.00 49 1010.5
20260504213723 73 53 5.2 9.6 0.00 0.00 0.00 47 1010.9
20260504213220 72 47 4.3 6.1 0.00 0.00 0.00 49 1010.7
20260504212717 74 346 2.6 6.1 0.00 0.00 0.00 48 1010.7
20260504212214 74 66 1.7 3.5 0.00 0.00 0.00 50 1010.8
20260504211711 73 66 0.0 2.6 0.00 0.00 0.00 51 1010.7
20260504211207 73 37 0.9 6.1 0.00 0.00 0.00 49 1010.5
20260504210704 74 329 2.6 7.0 0.00 0.00 0.00 48 1010.8
20260504210201 74 22 4.3 7.0 0.00 0.00 0.00 45 1010.8
20260504205658 74 39 6.1 7.0 0.00 0.00 0.00 47 1010.5
20260504205155 73 63 1.7 2.6 0.00 0.00 0.00 48 1010.6
20260504204654 74 63 2.6 3.5 0.00 0.00 0.00 47 1010.4
20260504204153 74 335 2.6 3.5 0.00 0.00 0.00 45 1010.4
20260504203651 74 225 0.9 3.5 0.00 0.00 0.00 47 1010.3
20260504203149 76 66 0.0 5.2 0.00 0.00 0.00 47 1010.4
20260504202648 74 143 0.9 3.5 0.00 0.00 0.00 50 1010.4
20260504202146 73 192 1.7 8.7 0.00 0.00 0.00 49 1010.5
20260504201643 73 334 1.7 6.1 0.00 0.00 0.00 47 1010.8
20260504201140 73 27 2.6 5.2 0.00 0.00 0.00 48 1010.6
20260504200637 74 46 2.6 2.6 0.00 0.00 0.00 47 1010.7
20260504200134 73 144 1.7 2.6 0.00 0.00 0.00 47 1010.6
20260504195630 72 61 0.9 1.7 0.00 0.00 0.00 49 1010.8
20260504195126 72 72 1.7 7.8 0.00 0.00 0.00 49 1010.8
20260504194623 73 352 0.9 9.6 0.00 0.00 0.00 50 1011.0
20260504194119 76 7 3.5 8.7 0.00 0.00 0.00 47 1010.7
20260504193615 74 118 1.7 7.0 0.00 0.00 0.00 49 1011.0
20260504193114 74 61 4.3 6.1 0.00 0.00 0.00 48 1011.1
20260504192612 72 280 0.9 6.1 0.00 0.00 0.00 52 1011.0
20260504192110 72 55 1.7 7.8 0.00 0.00 0.00 51 1011.1
20260504191608 73 95 6.1 7.8 0.00 0.00 0.00 48 1010.9
20260504191104 72 31 0.0 3.5 0.00 0.00 0.00 50 1011.2
20260504190600 71 182 0.9 1.7 0.00 0.00 0.00 50 1011.1
20260504190056 71 47 1.7 5.2 0.00 0.00 0.00 52 1011.2
20260504185553 72 51 6.1 7.8 0.00 0.00 0.00 46 1011.2
20260504185050 73 45 5.2 8.7 0.00 0.00 0.00 45 1011.1
20260504184545 72 70 4.3 6.1 0.00 0.00 0.00 45 1011.2
20260504184040 74 59 0.9 9.6 0.00 0.00 0.00 48 1011.0
20260504183538 73 47 1.7 2.6 0.00 0.00 0.00 48 1011.4
20260504183036 73 47 1.7 2.6 0.00 0.00 0.00 48 1011.4
20260504182532 73 349 1.7 6.1 0.00 0.00 0.00 47 1011.2
20260504182030 72 32 1.7 5.2 0.00 0.00 0.00 49 1011.1
20260504181527 73 50 5.2 7.0 0.00 0.00 0.00 47 1011.3
20260504181025 72 246 0.9 3.5 0.00 0.00 0.00 51 1011.2
20260504180524 72 31 2.6 7.0 0.00 0.00 0.00 47 1011.5
20260504180022 71 59 2.6 7.8 0.00 0.00 0.00 48 1011.3
20260504175519 72 35 2.6 3.5 0.00 0.00 0.00 49 1011.7
20260504175016 71 161 2.6 7.0 0.00 0.00 0.00 52 1011.4
20260504174514 70 237 3.5 7.0 0.00 0.00 0.00 49 1011.7
20260504174011 71 215 1.7 7.0 0.00 0.00 0.00 51 1012.0
20260504173507 71 286 1.7 6.1 0.00 0.00 0.00 51 1011.8
20260504173005 70 26 2.6 3.5 0.00 0.00 0.00 50 1012.0
20260504172501 70 222 1.7 6.1 0.00 0.00 0.00 52 1012.2
20260504171957 70 19 2.6 13.0 0.00 0.00 0.00 52 1011.9
20260504171454 70 6 3.5 7.8 0.00 0.00 0.00 52 1012.4
20260504170951 69 87 1.7 5.2 0.00 0.00 0.00 52 1012.2
20260504170447 70 27 6.1 8.7 0.00 0.00 0.00 51 1012.4
20260504160407 65 23 3.5 12.2 0.00 0.00 0.00 56 1013.4
20260504150831 66 111 0.9 7.8 0.00 0.00 0.00 56 1013.9
20260504150328 65 90 1.7 2.6 0.00 0.00 0.00 54 1013.8
20260504141258 64 41 1.7 2.6 0.00 0.00 0.00 52 1014.0
20260504140754 63 37 4.3 6.1 0.00 0.00 0.00 51 1013.9
20260504140250 64 34 0.9 7.8 0.00 0.00 0.00 51 1014.0
20260504130719 60 63 0.0 0.9 0.00 0.00 0.00 54 1014.0
20260504130214 60 35 2.6 7.0 0.00 0.00 0.00 54 1014.1
20260504120139 55 56 1.7 1.7 0.00 0.00 0.00 64 1013.9
20260504110606 47 215 1.7 2.6 0.00 0.00 0.00 82 1014.3
20260504100533 48 143 0.0 0.0 0.00 0.00 0.00 79 1014.5